QPF
0.03 0.04 0.05 0.05 0.05 0.05 0.05 0.03 0.03 0.04 0.06 0.06 0.06 0.07 0.06 0.06 0.05 0.03 0.03 0.04 0.06 0.07 0.06 0.07 0.06 0.06 0.07 0.06 0.05 0.05 0.05 0.06 0.07 0.08 0.06 0.06 0.05 0.04 0.04 0.04 0.03 0.02 0.01
0.01 0.03 0.04 0.05 0.04 0.04 0.04 0.04 0.03 0.03 0.04 0.06 0.07 0.08 0.08 0.07 0.05 0.03 0.02 0.03 0.04 0.06 0.06 0.07 0.06 0.08 0.10 0.06 0.05 0.05 0.05 0.05 0.06 0.08 0.07 0.06 0.05 0.05 0.05 0.05 0.04 0.03 0.02
0.01 0.02 0.02 0.03 0.03 0.04 0.04 0.05 0.05 0.04 0.03 0.03 0.05 0.07 0.08 0.09 0.07 0.04 0.03 0.03 0.03 0.04 0.05 0.06 0.07 0.12 0.11 0.07 0.06 0.07 0.05 0.04 0.05 0.05 0.05 0.04 0.03 0.03 0.07 0.07 0.06 0.06 0.05
0.01 0.02 0.02 0.02 0.02 0.03 0.03 0.03 0.03 0.03 0.03 0.02 0.03 0.04 0.06 0.08 0.07 0.06 0.04 0.05 0.05 0.04 0.04 0.05 0.06 0.10 0.09 0.10 0.07 0.05 0.04 0.04 0.04 0.04 0.04 0.04 0.03 0.03 0.05 0.06 0.06 0.05 0.05
0.02 0.01 0.01 0.01 0.01 0.01 0.02 0.02 0.02 0.02 0.02 0.02 0.02 0.02 0.04 0.07 0.08 0.07 0.05 0.04 0.06 0.08 0.07 0.06 0.06 0.05 0.05 0.06 0.04 0.03 0.03 0.04 0.04 0.04 0.05 0.05 0.04 0.05 0.04 0.04 0.05 0.06 0.05
0.01 0.01 0.01 0.01 0.01 0.02 0.02 0.02 0.02 0.02 0.03 0.03 0.03 0.03 0.03 0.03 0.06 0.06 0.05 0.05 0.05 0.07 0.08 0.09 0.08 0.05 0.04 0.03 0.03 0.02 0.02 0.02 0.03 0.04 0.04 0.04 0.05 0.05 0.05 0.05 0.06 0.06 0.06
0.01 0.01 0.01 0.01 0.02 0.02 0.02 0.03 0.04 0.04 0.04 0.04 0.03 0.03 0.04 0.04 0.06 0.06 0.06 0.06 0.07 0.08 0.10 0.10 0.07 0.05 0.04 0.03 0.03 0.02 0.01 0.01 0.01 0.02 0.02 0.03 0.04 0.04 0.05 0.06 0.07 0.07 0.07
0.03 0.03 0.02 0.02 0.03 0.03 0.04 0.04 0.05 0.06 0.05 0.04 0.03 0.04 0.05 0.04 0.05 0.06 0.06 0.06 0.08 0.07 0.06 0.06 0.06 0.07 0.06 0.05 0.04 0.03 0.02 0.01 0.01 0.01 0.01 0.02 0.03 0.04 0.04 0.04 0.05 0.05 0.04
0.04 0.04 0.04 0.04 0.05 0.04 0.04 0.04 0.06 0.06 0.06 0.06 0.06 0.06 0.06 0.04 0.04 0.05 0.05 0.04 0.06 0.07 0.06 0.06 0.05 0.06 0.06 0.05 0.04 0.04 0.04 0.03 0.01 0.01 0.01 0.01 0.01 0.02 0.02 0.02 0.03 0.03 0.03
0.04 0.04 0.03 0.04 0.04 0.05 0.04 0.05 0.06 0.06 0.05 0.05 0.06 0.06 0.06 0.06 0.06 0.05 0.04 0.03 0.05 0.05 0.05 0.06 0.04 0.06 0.06 0.05 0.04 0.04 0.05 0.05 0.04 0.03 0.02 0.01 0.01 0.01 0.02 0.01 0.03 0.04 0.04
0.04 0.04 0.02 0.02 0.03 0.03 0.04 0.04 0.04 0.05 0.05 0.05 0.05 0.05 0.06 0.06 0.07 0.05 0.03 0.04 0.04 0.05 0.04 0.03 0.03 0.03 0.03 0.04 0.04 0.04 0.05 0.04 0.05 0.05 0.04 0.04 0.04 0.03 0.02 0.01 0.02 0.04 0.04
0.04 0.04 0.03 0.03 0.03 0.02 0.03 0.03 0.03 0.03 0.03 0.04 0.05 0.05 0.06 0.06 0.05 0.03 0.03 0.03 0.03 0.06 0.05 0.04 0.03 0.03 0.02 0.02 0.02 0.02 0.03 0.02 0.03 0.03 0.04 0.04 0.05 0.05 0.04 0.04 0.04 0.04 0.03
0.05 0.05 0.05 0.04 0.04 0.04 0.04 0.04 0.04 0.05 0.04 0.04 0.04 0.05 0.05 0.05 0.03 0.02 0.02 0.02 0.02 0.04 0.05 0.04 0.04 0.03 0.02 0.02 0.02 0.02 0.02 0.02 0.03 0.04 0.04 0.04 0.03 0.04 0.04 0.05 0.07 0.07 0.05
0.05 0.07 0.07 0.06 0.05 0.05 0.06 0.05 0.06 0.05 0.06 0.05 0.05 0.04 0.04 0.04 0.03 0.01 0.01 0.01 0.02 0.03 0.03 0.03 0.03 0.03 0.02 0.02 0.01 0.02 0.03 0.03 0.04 0.04 0.05 0.04 0.04 0.04 0.04 0.04 0.06 0.07 0.07
0.05 0.07 0.06 0.04 0.06 0.07 0.06 0.05 0.05 0.05 0.05 0.05 0.04 0.04 0.04 0.04 0.03 0.02 0.01 0.01 0.01 0.01 0.03 0.03 0.03 0.02 0.01 0.01 0.01 0.01 0.02 0.02 0.03 0.03 0.03 0.04 0.04 0.04 0.05 0.06 0.06 0.06 0.06
0.05 0.06 0.05 0.04 0.04 0.04 0.05 0.04 0.04 0.05 0.03 0.02 0.02 0.03 0.03 0.03 0.03 0.03 0.03 0.01 0.01 0.01 0.03 0.03 0.03 0.03 0.03 0.03 0.03 0.02 0.02 0.03 0.03 0.03 0.02 0.02 0.03 0.03 0.05 0.06 0.07 0.08 0.07
0.05 0.05 0.05 0.04 0.03 0.03 0.03 0.04 0.04 0.05 0.04 0.03 0.02 0.01 0.02 0.02 0.01 0.02 0.02 0.02 0.02 0.02 0.02 0.02 0.02 0.02 0.02 0.02 0.03 0.03 0.03 0.04 0.04 0.04 0.04 0.04 0.04 0.04 0.03 0.04 0.04 0.05 0.06
0.05 0.06 0.06 0.05 0.03 0.03 0.03 0.03 0.03 0.03 0.04 0.03 0.02 0.02 0.02 0.02 0.01 0.01 0.02 0.01 0.01 0.02 0.01 0.01 0.01 0.01 0.02 0.03 0.03 0.04 0.05 0.05 0.06 0.06 0.06 0.06 0.06 0.05 0.05 0.04 0.04 0.04 0.04
0.04 0.04 0.04 0.04 0.03 0.03 0.02 0.02 0.01 0.02 0.03 0.02 0.02 0.02 0.02 0.01 0.01 0.01 0.01 0.01 0.01 0.01 0.01 0.02 0.02 0.02 0.02 0.02 0.03 0.04 0.05 0.06 0.07 0.07 0.06 0.06 0.05 0.05 0.05 0.04 0.04 0.04 0.04
0.04 0.04 0.04 0.03 0.03 0.03 0.02 0.02 0.01 0.02 0.02 0.02 0.02 0.01 0.01 0.01 0.01 0.01 0.01 0.01 0.02 0.02 0.02 0.02 0.02 0.02 0.03 0.03 0.03 0.03 0.04 0.04 0.05 0.06 0.06 0.07 0.06 0.05 0.05 0.04 0.04 0.05 0.06
0.04 0.04 0.04 0.03 0.02 0.03 0.03 0.02 0.01 0.02 0.02 0.02 0.01 0.01 0.01 0.01 0.01 0.01 0.01 0.01 0.02 0.02 0.03 0.03 0.02 0.03 0.03 0.03 0.03 0.03 0.03 0.03 0.04 0.05 0.05 0.06 0.06 0.06 0.06 0.06 0.06 0.06 0.07
0.05 0.06 0.06 0.04 0.04 0.04 0.03 0.02 0.02 0.02 0.02 0.02 0.02 0.02 0.01 0.01 0.01 0.01 0.01 0.01 0.01 0.02 0.02 0.03 0.03 0.03 0.03 0.04 0.05 0.05 0.05 0.05 0.04 0.04 0.04 0.04 0.03 0.03 0.03 0.04 0.04 0.05 0.05
0.07 0.08 0.09 0.08 0.06 0.05 0.05 0.04 0.04 0.04 0.03 0.03 0.03 0.02 0.02 0.01 0.01 0.01 0.01 0.01 0.02 0.02 0.02 0.02 0.03 0.04 0.04 0.04 0.04 0.05 0.05 0.04 0.04 0.04 0.03 0.03 0.03 0.02 0.02 0.03 0.03 0.03 0.03
0.09 0.08 0.09 0.10 0.10 0.07 0.06 0.06 0.06 0.05 0.05 0.05 0.04 0.03 0.03 0.02 0.02 0.02 0.02 0.02 0.02 0.01 0.01 0.02 0.02 0.02 0.03 0.03 0.03 0.04 0.05 0.05 0.04 0.03 0.03 0.03 0.03 0.03 0.02 0.02 0.02 0.02 0.03
0.08 0.08 0.08 0.09 0.12 0.12 0.09 0.08 0.08 0.07 0.07 0.07 0.06 0.05 0.05 0.05 0.04 0.04 0.04 0.03 0.03 0.02 0.02 0.02 0.02 0.03 0.03 0.04 0.04 0.04 0.07 0.08 0.07 0.05 0.03 0.03 0.02 0.02 0.02 0.03 0.03 0.03 0.03
0.07 0.07 0.08 0.08 0.09 0.10 0.11 0.11 0.10 0.08 0.08 0.07 0.07 0.06 0.06 0.07 0.07 0.07 0.06 0.06 0.05 0.05 0.04 0.03 0.04 0.04 0.04 0.04 0.05 0.06 0.07 0.06 0.06 0.05 0.03 0.02 0.02 0.03 0.03 0.03 0.03 0.04 0.03
MSLP
1005.56 1005.88 1006.23 1006.59 1006.97 1007.36 1007.77 1008.20 1008.66 1009.13 1009.60 1010.04 1010.42 1010.73 1010.94 1011.05 1011.07 1011.03 1010.96 1010.88 1010.84 1010.85 1010.91 1011.02 1011.16 1011.30 1011.42 1011.49 1011.50 1011.44 1011.32 1011.16 1010.97 1010.77 1010.58 1010.41 1010.28 1010.18 1010.11 1010.06 1010.01 1009.95 1009.86
1006.05 1006.37 1006.71 1007.07 1007.42 1007.77 1008.13 1008.49 1008.87 1009.25 1009.63 1009.99 1010.31 1010.57 1010.74 1010.84 1010.87 1010.83 1010.78 1010.72 1010.68 1010.70 1010.76 1010.88 1011.02 1011.18 1011.32 1011.43 1011.48 1011.48 1011.42 1011.31 1011.16 1010.99 1010.82 1010.67 1010.53 1010.43 1010.35 1010.29 1010.24 1010.19 1010.11
1006.53 1006.87 1007.21 1007.55 1007.87 1008.17 1008.46 1008.74 1009.02 1009.31 1009.59 1009.87 1010.12 1010.33 1010.49 1010.59 1010.63 1010.64 1010.62 1010.59 1010.59 1010.63 1010.71 1010.84 1011.00 1011.17 1011.34 1011.48 1011.57 1011.61 1011.59 1011.51 1011.40 1011.26 1011.11 1010.96 1010.83 1010.72 1010.64 1010.59 1010.55 1010.51 1010.46
1006.96 1007.31 1007.65 1007.97 1008.26 1008.51 1008.72 1008.91 1009.09 1009.28 1009.47 1009.66 1009.85 1010.03 1010.18 1010.29 1010.37 1010.42 1010.45 1010.49 1010.53 1010.61 1010.72 1010.87 1011.05 1011.25 1011.43 1011.60 1011.72 1011.79 1011.80 1011.75 1011.66 1011.54 1011.39 1011.25 1011.12 1011.01 1010.94 1010.89 1010.87 1010.86 1010.84
1007.31 1007.66 1007.99 1008.29 1008.53 1008.72 1008.86 1008.96 1009.05 1009.14 1009.25 1009.37 1009.51 1009.66 1009.80 1009.94 1010.06 1010.16 1010.25 1010.34 1010.45 1010.57 1010.73 1010.91 1011.12 1011.34 1011.55 1011.73 1011.88 1011.97 1012.00 1011.98 1011.90 1011.78 1011.64 1011.50 1011.37 1011.26 1011.19 1011.16 1011.16 1011.18 1011.20
1007.55 1007.89 1008.20 1008.46 1008.65 1008.78 1008.84 1008.87 1008.88 1008.89 1008.92 1008.99 1009.09 1009.21 1009.36 1009.52 1009.68 1009.83 1009.98 1010.13 1010.30 1010.47 1010.67 1010.90 1011.13 1011.38 1011.62 1011.83 1011.99 1012.11 1012.16 1012.14 1012.07 1011.96 1011.82 1011.67 1011.54 1011.43 1011.36 1011.34 1011.35 1011.40 1011.46
1007.71 1008.01 1008.27 1008.48 1008.62 1008.68 1008.68 1008.65 1008.59 1008.54 1008.52 1008.54 1008.61 1008.73 1008.88 1009.05 1009.25 1009.44 1009.65 1009.85 1010.07 1010.29 1010.53 1010.79 1011.07 1011.34 1011.61 1011.84 1012.03 1012.17 1012.23 1012.23 1012.17 1012.05 1011.91 1011.75 1011.61 1011.49 1011.42 1011.40 1011.42 1011.49 1011.58
1007.80 1008.04 1008.24 1008.38 1008.46 1008.47 1008.42 1008.33 1008.23 1008.14 1008.08 1008.08 1008.13 1008.24 1008.40 1008.60 1008.81 1009.05 1009.29 1009.53 1009.79 1010.05 1010.33 1010.62 1010.92 1011.23 1011.52 1011.78 1011.99 1012.15 1012.23 1012.24 1012.18 1012.06 1011.91 1011.74 1011.58 1011.45 1011.37 1011.34 1011.36 1011.43 1011.53
1007.90 1008.05 1008.17 1008.24 1008.26 1008.22 1008.12 1008.00 1007.87 1007.76 1007.69 1007.68 1007.73 1007.84 1008.01 1008.22 1008.46 1008.71 1008.98 1009.25 1009.53 1009.81 1010.11 1010.43 1010.75 1011.07 1011.38 1011.66 1011.89 1012.06 1012.15 1012.17 1012.12 1012.01 1011.85 1011.67 1011.49 1011.34 1011.23 1011.18 1011.19 1011.24 1011.34
1008.05 1008.11 1008.15 1008.15 1008.11 1008.02 1007.89 1007.75 1007.61 1007.49 1007.42 1007.42 1007.48 1007.60 1007.78 1008.00 1008.26 1008.52 1008.80 1009.08 1009.36 1009.65 1009.95 1010.26 1010.59 1010.91 1011.22 1011.51 1011.75 1011.93 1012.03 1012.06 1012.01 1011.90 1011.73 1011.54 1011.35 1011.18 1011.04 1010.96 1010.94 1010.97 1011.05
1008.31 1008.28 1008.23 1008.17 1008.07 1007.95 1007.80 1007.64 1007.50 1007.40 1007.34 1007.35 1007.43 1007.57 1007.77 1008.00 1008.26 1008.53 1008.80 1009.07 1009.34 1009.61 1009.88 1010.17 1010.47 1010.77 1011.07 1011.34 1011.58 1011.75 1011.86 1011.90 1011.86 1011.75 1011.58 1011.38 1011.18 1010.99 1010.83 1010.72 1010.66 1010.66 1010.71
1008.69 1008.59 1008.48 1008.36 1008.22 1008.06 1007.90 1007.74 1007.60 1007.51 1007.47 1007.51 1007.61 1007.77 1007.97 1008.21 1008.47 1008.73 1008.98 1009.22 1009.45 1009.68 1009.91 1010.15 1010.40 1010.65 1010.91 1011.15 1011.36 1011.53 1011.63 1011.67 1011.63 1011.53 1011.37 1011.18 1010.97 1010.78 1010.60 1010.47 1010.39 1010.35 1010.37
1009.21 1009.06 1008.90 1008.73 1008.55 1008.37 1008.19 1008.03 1007.90 1007.83 1007.81 1007.86 1007.98 1008.15 1008.37 1008.60 1008.85 1009.08 1009.30 1009.50 1009.67 1009.83 1009.99 1010.15 1010.33 1010.51 1010.70 1010.89 1011.07 1011.21 1011.30 1011.34 1011.31 1011.23 1011.09 1010.91 1010.72 1010.53 1010.36 1010.22 1010.12 1010.07 1010.06
1009.86 1009.66 1009.47 1009.27 1009.06 1008.86 1008.67 1008.50 1008.37 1008.30 1008.29 1008.35 1008.48 1008.65 1008.86 1009.09 1009.31 1009.50 1009.67 1009.80 1009.90 1009.97 1010.04 1010.11 1010.19 1010.28 1010.39 1010.52 1010.64 1010.75 1010.83 1010.87 1010.86 1010.80 1010.69 1010.56 1010.40 1010.24 1010.09 1009.96 1009.87 1009.81 1009.78
1010.59 1010.38 1010.16 1009.93 1009.70 1009.47 1009.27 1009.09 1008.95 1008.88 1008.87 1008.92 1009.04 1009.20 1009.39 1009.58 1009.75 1009.88 1009.98 1010.03 1010.03 1010.01 1009.97 1009.93 1009.91 1009.91 1009.93 1009.98 1010.05 1010.12 1010.19 1010.23 1010.25 1010.22 1010.16 1010.08 1009.97 1009.86 1009.76 1009.67 1009.60 1009.56 1009.54
1011.37 1011.15 1010.92 1010.67 1010.42 1010.18 1009.95 1009.75 1009.61 1009.52 1009.49 1009.52 1009.61 1009.73 1009.87 1010.00 1010.10 1010.16 1010.16 1010.12 1010.02 1009.88 1009.73 1009.58 1009.45 1009.35 1009.29 1009.27 1009.29 1009.33 1009.38 1009.43 1009.47 1009.50 1009.49 1009.47 1009.43 1009.39 1009.34 1009.31 1009.29 1009.28 1009.28
1012.17 1011.95 1011.71 1011.45 1011.19 1010.93 1010.69 1010.48 1010.31 1010.20 1010.14 1010.13 1010.17 1010.23 1010.29 1010.34 1010.35 1010.30 1010.20 1010.04 1009.83 1009.59 1009.33 1009.07 1008.84 1008.65 1008.51 1008.43 1008.40 1008.41 1008.45 1008.51 1008.58 1008.65 1008.70 1008.74 1008.77 1008.80 1008.83 1008.86 1008.89 1008.93 1008.97
1012.96 1012.74 1012.51 1012.25 1011.99 1011.73 1011.48 1011.27 1011.08 1010.94 1010.84 1010.77 1010.74 1010.71 1010.68 1010.61 1010.51 1010.35 1010.13 1009.85 1009.53 1009.17 1008.81 1008.46 1008.14 1007.87 1007.66 1007.52 1007.45 1007.44 1007.47 1007.54 1007.63 1007.73 1007.83 1007.93 1008.02 1008.11 1008.21 1008.30 1008.40 1008.49 1008.59
1013.73 1013.53 1013.31 1013.07 1012.83 1012.59 1012.35 1012.13 1011.94 1011.77 1011.62 1011.49 1011.37 1011.23 1011.08 1010.89 1010.66 1010.36 1010.02 1009.62 1009.18 1008.72 1008.26 1007.83 1007.43 1007.10 1006.84 1006.65 1006.54 1006.50 1006.52 1006.58 1006.68 1006.80 1006.93 1007.07 1007.21 1007.36 1007.51 1007.66 1007.81 1007.97 1008.11
1014.48 1014.31 1014.12 1013.93 1013.72 1013.51 1013.31 1013.10 1012.90 1012.71 1012.51 1012.31 1012.09 1011.84 1011.56 1011.23 1010.85 1010.42 1009.95 1009.43 1008.88 1008.33 1007.79 1007.29 1006.83 1006.45 1006.14 1005.91 1005.76 1005.68 1005.68 1005.72 1005.81 1005.93 1006.07 1006.23 1006.40 1006.58 1006.77 1006.96 1007.17 1007.37 1007.57
1015.21 1015.08 1014.94 1014.80 1014.66 1014.50 1014.34 1014.16 1013.97 1013.75 1013.51 1013.23 1012.91 1012.55 1012.13 1011.66 1011.14 1010.58 1009.98 1009.35 1008.71 1008.08 1007.48 1006.92 1006.42 1005.99 1005.63 1005.36 1005.17 1005.05 1005.00 1005.02 1005.07 1005.17 1005.30 1005.46 1005.64 1005.83 1006.05 1006.28 1006.52 1006.76 1007.01
1015.92 1015.84 1015.76 1015.69 1015.62 1015.53 1015.42 1015.27 1015.09 1014.86 1014.57 1014.22 1013.80 1013.32 1012.77 1012.18 1011.53 1010.84 1010.13 1009.41 1008.70 1008.01 1007.36 1006.76 1006.22 1005.75 1005.36 1005.04 1004.81 1004.64 1004.54 1004.50 1004.52 1004.58 1004.68 1004.82 1004.99 1005.19 1005.42 1005.67 1005.95 1006.23 1006.52
1016.58 1016.56 1016.55 1016.55 1016.55 1016.52 1016.46 1016.35 1016.18 1015.93 1015.60 1015.18 1014.67 1014.09 1013.44 1012.72 1011.97 1011.19 1010.40 1009.61 1008.85 1008.12 1007.43 1006.81 1006.24 1005.75 1005.32 1004.97 1004.68 1004.46 1004.31 1004.21 1004.18 1004.19 1004.26 1004.37 1004.53 1004.73 1004.97 1005.24 1005.54 1005.86 1006.19
1017.18 1017.21 1017.26 1017.33 1017.38 1017.41 1017.39 1017.31 1017.14 1016.87 1016.50 1016.02 1015.44 1014.78 1014.04 1013.24 1012.41 1011.57 1010.73 1009.91 1009.12 1008.37 1007.68 1007.05 1006.47 1005.95 1005.50 1005.11 1004.77 1004.50 1004.29 1004.14 1004.05 1004.02 1004.06 1004.15 1004.30 1004.50 1004.75 1005.04 1005.36 1005.71 1006.09
1017.70 1017.77 1017.87 1017.97 1018.07 1018.14 1018.14 1018.07 1017.89 1017.60 1017.20 1016.68 1016.05 1015.32 1014.53 1013.69 1012.82 1011.95 1011.10 1010.27 1009.49 1008.75 1008.07 1007.44 1006.87 1006.34 1005.86 1005.44 1005.07 1004.75 1004.49 1004.29 1004.16 1004.09 1004.10 1004.18 1004.32 1004.53 1004.79 1005.11 1005.46 1005.84 1006.23
1018.11 1018.20 1018.32 1018.46 1018.57 1018.65 1018.66 1018.59 1018.40 1018.09 1017.67 1017.12 1016.46 1015.71 1014.91 1014.06 1013.19 1012.33 1011.50 1010.70 1009.95 1009.24 1008.59 1007.98 1007.41 1006.89 1006.40 1005.95 1005.54 1005.19 1004.89 1004.65 1004.49 1004.40 1004.39 1004.46 1004.61 1004.83 1005.11 1005.44 1005.81 1006.21 1006.63
Thickness
5733 5731 5729 5728 5727 5725 5723 5723 5722 5721 5720 5720 5718 5717 5715 5714 5713 5712 5712 5712 5711 5710 5710 5709 5709 5710 5710 5712 5713 5713 5712 5711 5705 5707 5710 5710 5710 5709 5708 5707 5706 5704 5702
5730 5727 5724 5723 5721 5720 5719 5718 5717 5716 5716 5715 5714 5713 5712 5711 5710 5709 5708 5709 5709 5708 5707 5707 5706 5708 5707 5708 5709 5709 5709 5709 5706 5703 5705 5707 5707 5707 5706 5705 5705 5705 5703
5725 5721 5719 5717 5715 5713 5713 5713 5712 5711 5710 5710 5709 5708 5708 5707 5706 5706 5706 5706 5706 5706 5706 5705 5705 5704 5703 5704 5705 5706 5706 5708 5706 5703 5702 5704 5705 5705 5704 5703 5704 5704 5703
5719 5715 5713 5711 5710 5709 5708 5707 5707 5706 5704 5704 5704 5704 5704 5703 5703 5703 5703 5703 5704 5704 5704 5703 5703 5702 5701 5700 5702 5702 5703 5702 5702 5701 5700 5701 5701 5702 5701 5699 5698 5700 5700
5712 5709 5707 5706 5705 5704 5702 5701 5701 5700 5700 5699 5699 5698 5699 5699 5698 5698 5698 5700 5700 5700 5701 5700 5700 5699 5698 5698 5699 5698 5698 5697 5697 5696 5696 5696 5696 5696 5696 5698 5696 5696 5697
5705 5703 5702 5701 5699 5698 5697 5696 5695 5694 5694 5693 5692 5692 5692 5693 5693 5692 5693 5695 5696 5695 5695 5695 5696 5696 5695 5695 5694 5694 5694 5694 5692 5692 5692 5691 5693 5694 5695 5695 5693 5691 5689
5697 5696 5695 5694 5692 5691 5691 5689 5688 5687 5686 5686 5686 5686 5686 5685 5686 5686 5687 5689 5690 5691 5691 5691 5692 5694 5693 5692 5691 5690 5690 5690 5690 5690 5688 5689 5690 5692 5692 5691 5690 5688 5687
5689 5689 5688 5687 5685 5684 5683 5682 5681 5680 5679 5679 5679 5680 5680 5680 5679 5679 5680 5682 5685 5686 5687 5687 5687 5688 5689 5688 5688 5688 5687 5687 5687 5687 5687 5688 5690 5689 5689 5689 5688 5687 5689
5681 5680 5680 5679 5678 5677 5675 5674 5674 5673 5672 5673 5673 5673 5674 5673 5673 5673 5673 5676 5678 5680 5682 5683 5683 5683 5683 5683 5684 5683 5683 5684 5685 5685 5685 5685 5685 5685 5685 5684 5684 5682 5681
5673 5673 5673 5672 5671 5670 5669 5668 5668 5667 5667 5667 5667 5668 5668 5668 5668 5668 5667 5670 5672 5674 5676 5678 5678 5678 5678 5678 5678 5678 5678 5679 5681 5680 5680 5681 5682 5682 5681 5680 5680 5678 5677
5666 5666 5665 5664 5664 5663 5663 5662 5661 5660 5660 5660 5660 5661 5662 5663 5663 5662 5662 5664 5666 5669 5671 5673 5674 5673 5673 5673 5673 5673 5674 5674 5675 5675 5676 5677 5678 5679 5679 5679 5678 5677 5675
5658 5658 5658 5658 5658 5658 5656 5655 5655 5654 5654 5653 5653 5654 5656 5658 5658 5657 5657 5658 5659 5662 5665 5668 5668 5667 5667 5667 5667 5668 5668 5668 5670 5670 5671 5672 5673 5675 5677 5677 5677 5677 5676
5651 5651 5651 5651 5651 5651 5649 5648 5647 5647 5647 5647 5647 5647 5650 5653 5654 5653 5652 5652 5653 5655 5659 5660 5659 5659 5659 5660 5661 5661 5661 5662 5664 5665 5666 5669 5671 5672 5673 5674 5674 5674 5674
5642 5642 5643 5643 5643 5643 5643 5643 5641 5640 5640 5640 5641 5642 5644 5646 5647 5646 5646 5646 5646 5648 5650 5651 5652 5652 5654 5655 5656 5656 5657 5658 5659 5660 5662 5665 5667 5667 5668 5669 5668 5668 5666
5634 5634 5635 5636 5636 5636 5636 5636 5635 5635 5634 5633 5635 5636 5637 5638 5639 5639 5640 5641 5642 5643 5642 5644 5645 5646 5648 5650 5651 5653 5653 5654 5654 5655 5657 5658 5659 5660 5662 5663 5663 5662 5660
5625 5627 5628 5628 5629 5629 5629 5629 5628 5629 5628 5628 5628 5629 5632 5632 5633 5633 5634 5634 5634 5634 5635 5638 5641 5642 5645 5646 5647 5648 5649 5650 5651 5651 5651 5651 5652 5654 5655 5656 5656 5655 5654
5618 5619 5620 5621 5622 5622 5622 5622 5622 5621 5621 5621 5623 5623 5623 5624 5625 5626 5626 5626 5626 5626 5628 5633 5636 5638 5640 5642 5643 5644 5644 5645 5645 5645 5645 5646 5646 5647 5648 5648 5647 5647 5647
5611 5612 5613 5614 5615 5615 5615 5616 5617 5617 5617 5618 5618 5617 5617 5617 5617 5618 5617 5616 5619 5620 5624 5628 5631 5633 5635 5636 5637 5638 5639 5639 5639 5639 5639 5640 5640 5640 5640 5640 5639 5639 5639
5605 5606 5607 5608 5608 5609 5610 5611 5613 5612 5613 5614 5614 5612 5610 5610 5609 5609 5608 5612 5616 5618 5620 5623 5626 5628 5629 5630 5631 5631 5632 5632 5632 5632 5632 5632 5632 5631 5631 5632 5632 5630 5630
5598 5598 5599 5601 5602 5603 5604 5606 5607 5607 5606 5607 5608 5607 5605 5603 5604 5604 5604 5607 5610 5612 5614 5616 5618 5620 5622 5623 5623 5624 5624 5625 5624 5624 5624 5624 5624 5624 5623 5623 5624 5623 5623
5592 5593 5592 5594 5595 5596 5598 5599 5600 5600 5599 5600 5601 5600 5598 5599 5599 5599 5600 5601 5603 5605 5606 5608 5609 5611 5613 5614 5615 5616 5616 5616 5616 5616 5616 5616 5616 5616 5616 5616 5616 5616 5616
5585 5586 5586 5586 5587 5588 5589 5591 5592 5591 5591 5593 5594 5593 5591 5592 5593 5593 5594 5594 5596 5597 5598 5600 5601 5603 5605 5606 5606 5606 5606 5606 5606 5607 5607 5607 5607 5608 5608 5608 5609 5609 5608
5577 5578 5579 5579 5580 5580 5582 5583 5584 5585 5585 5586 5587 5586 5584 5585 5586 5585 5586 5587 5587 5589 5590 5590 5592 5594 5596 5597 5597 5597 5596 5596 5596 5596 5597 5597 5597 5598 5599 5600 5601 5601 5602
5570 5571 5571 5572 5573 5574 5574 5574 5575 5576 5576 5577 5577 5576 5576 5575 5576 5577 5577 5578 5579 5580 5580 5580 5582 5584 5585 5586 5587 5586 5585 5585 5585 5586 5587 5587 5587 5588 5589 5591 5593 5594 5594
5563 5564 5564 5565 5567 5568 5568 5568 5568 5568 5567 5567 5567 5568 5567 5567 5567 5568 5568 5569 5569 5570 5571 5571 5573 5574 5574 5575 5575 5574 5574 5574 5574 5574 5575 5577 5578 5580 5581 5582 5584 5586 5587
5557 5557 5558 5559 5560 5560 5560 5560 5560 5560 5560 5559 5558 5558 5559 5559 5559 5559 5559 5559 5560 5560 5560 5561 5562 5563 5564 5565 5564 5564 5564 5565 5565 5565 5566 5568 5571 5572 5573 5575 5577 5578 5579